Preview of NWS' New Version of Forecast
This preview is not operational and should not be used for support decisions.

Regional Weather Roundup (RWR)

Issued by National Weather Service (NWS)

                            
000
ASUS43 KLSX 190057
RWRMO 

WEATHER SUMMARY FOR MISSOURI
NATIONAL WEATHER SERVICE SPRINGFIELD MO
800 PM CDT WED SEP 18 2019

NOTE: "FAIR" INDICATES FEW OR NO CLOUDS BELOW 12,000 FEET WITH NO
       SIGNIFICANT WEATHER AND/OR OBSTRUCTIONS TO VISIBILITY.
       CURRENT SKY AND/OR WEATHER CONDITIONS ARE NOT AVAILABLE FOR
       CHILLICOTHE AND FARMINGTON.

MOZ001>031-035>038-043-044-053-054-190200-
...NORTHERN AND WESTERN MISSOURI...
  
CITY           SKY/WX    TMP DP  RH WIND       PRES   REMARKS
KANSAS CTY INT CLEAR     77  69  76 S7        29.96R                  
LEE'S SUMMIT   CLEAR     84  67  56 MISG      29.97R                  
ST JOSEPH      CLEAR     80  70  71 SE6       29.95R                  
CHILLICOTHE      N/A     78  73  84 CALM      29.98R                  
     
$$
MOZ066>068-077>081-088>096-101>105-190200-
...SOUTHWEST MISSOURI...
  
CITY           SKY/WX    TMP DP  RH WIND       PRES   REMARKS
SPRINGFIELD    CLEAR     83  64  52 SE5       29.98S                  
JOPLIN         CLEAR     81  68  64 E5        29.96F                  
BRANSON        CLEAR     77  64  65 CALM      30.01S                  
               
$$
MOZ032>034-039>042-045>050-055>058-069>072-190200-
...CENTRAL MISSOURI...  
  
CITY           SKY/WX    TMP DP  RH WIND       PRES   REMARKS
COLUMBIA       NOT AVBL                                               
JEFFERSON CITY CLEAR     84  72  67 E6        29.99R                  
ROLLA          CLEAR     78  68  71 E7        30.03R                  
SEDALIA        CLEAR     79  72  79 E3        29.99R                  
WARRENSBURG    CLEAR     81  68  65 CALM      29.96S                  
               
$$
MOZ051-052-059>065-190200-
...EAST CENTRAL MISSOURI...
  
CITY           SKY/WX    TMP DP  RH WIND       PRES   REMARKS
ST LOUIS INTL  PTCLDY    81  68  64 E8        30.03R                  
                   
$$
MOZ072>076-082>087-097>100-106>115-190200-
...SOUTH CENTRAL AND SOUTHEAST MISSOURI...
  
CITY           SKY/WX    TMP DP  RH WIND       PRES   REMARKS
CAPE GIRARDEAU FAIR      78  68  71 CALM      29.99R                  
POPLAR BLUFF   FAIR      78  70  76 CALM      29.98R                  
WEST PLAINS    CLEAR     77  67  71 CALM      30.03S                  
                                       
$$